Kemmerer, WY

11:12 AM MDT on July 20, 2017 (GMT -0600)
Kemmerer Municipal

Weather History for KEMM - August, 2013

Change the Weather History Date:

Sunday, August 4, 2013

  Actual Average Record
Temperature  
Mean Temperature 64 °F -  
Max Temperature 83 °F 81 °F 94 °F (1979)
Min Temperature 45 °F 44 °F 30 °F (1975)
Degree Days  
Heating Degree Days 1    
Growing Degree Days 14 (Base 50)    
Moisture  
Dew Point 25 °F    
Average Humidity 28    
Maximum Humidity 54    
Minimum Humidity 9    
Precipitation  
Precipitation 0.00 in - - ()
Sea Level Pressure  
Sea Level Pressure 30.28 in    
Wind  
Wind Speed 10 mph (NW)    
Max Wind Speed 23 mph    
Max Gust Speed 34 mph    
Visibility 10 miles    
Events      
Averages and records for this station are not official NWS values.
T = Trace of Precipitation, MM = Missing Value Source: NWS Daily Summary

Daily Weather History Graph

Daily Weather History Graph

Search for Another Location

Airport or City:

Trip Planner

Search our weather history database for the weather conditions in past years. The results will help you decide how hot, cold, wet, or windy it might be!

Date:

Astronomy

Aug. 04, 2013 Rise Set
Actual Time 6:19 AM MDT 8:36 PM MDT
Civil Twilight 5:48 AM MDT 9:07 PM MDT
Nautical Twilight 5:09 AM MDT 9:45 PM MDT
Astronomical Twilight 4:27 AM MDT 10:27 PM MDT
Moon 4:23 AM MDT (8/4) 7:01 PM MDT (8/4)
Length of Visible Light 15h 19m
Length of Day
14h 16m
Waning Crescent, 4% of the Moon is Illuminated
Aug 4
Waning Crescent
Aug 6
New
Aug 14
First Quarter
Aug 20
Full
Aug 28
Last Quarter

Hourly Weather History & Observations

Time (MDT) Temp. Windchill Dew Point Humidity Pressure Visibility Wind Dir Wind Speed Gust Speed Precip Events Conditions
12:15 AM 59.4 °F - 23.2 °F 25% 30.28 in 10.0 mi North 8.1 mph - N/A   Clear
12:35 AM 58.8 °F - 22.8 °F 25% 30.28 in 10.0 mi North 8.1 mph - N/A   Clear
12:55 AM 57.7 °F - 23.7 °F 27% 30.28 in 10.0 mi North 9.2 mph - N/A   Clear
1:15 AM 56.7 °F - 24.1 °F 28% 30.28 in 10.0 mi North 10.4 mph - N/A   Clear
1:35 AM 54.5 °F - 25.7 °F 33% 30.29 in 10.0 mi Calm Calm - N/A   Clear
1:55 AM 53.1 °F - 25.7 °F 35% 30.29 in 10.0 mi North 5.8 mph - N/A   Clear
2:15 AM 54.0 °F - 24.3 °F 32% 30.29 in 10.0 mi North 3.5 mph - N/A   Clear
2:35 AM 53.8 °F - 24.4 °F 32% 30.29 in 10.0 mi NNE 3.5 mph - N/A   Clear
2:55 AM 49.5 °F - 28.6 °F 45% 30.29 in 10.0 mi North 5.8 mph - N/A   Clear
3:15 AM 49.5 °F - 27.5 °F 43% 30.29 in 10.0 mi North 9.2 mph - N/A   Clear
3:35 AM 49.1 °F - 27.5 °F 43% 30.29 in 10.0 mi North 10.4 mph - N/A   Clear
3:55 AM 48.4 °F - 27.1 °F 44% 30.29 in 10.0 mi North 10.4 mph - N/A   Clear
4:15 AM 48.2 °F - 26.4 °F 43% 30.29 in 10.0 mi North 10.4 mph - N/A   Clear
4:35 AM 48.0 °F - 27.7 °F 45% 30.28 in 10.0 mi North 10.4 mph - N/A   Clear
4:55 AM 46.9 °F - 28.8 °F 49% 30.29 in 10.0 mi North 9.2 mph - N/A   Clear
5:15 AM 46.8 °F - 28.8 °F 50% 30.29 in 10.0 mi North 10.4 mph - N/A   Clear
5:35 AM 47.7 °F - 28.2 °F 47% 30.29 in 10.0 mi North 10.4 mph - N/A   Clear
5:55 AM 45.9 °F 40.4 °F 29.8 °F 54% 30.30 in 10.0 mi North 11.5 mph - N/A   Clear
6:15 AM 46.2 °F 41.2 °F 28.4 °F 50% 30.30 in 10.0 mi North 10.4 mph - N/A   Clear
6:35 AM 47.1 °F - 27.9 °F 47% 30.30 in 10.0 mi NNW 11.5 mph - N/A   Clear
6:55 AM 48.9 °F - 28.0 °F 44% 30.30 in 10.0 mi North 10.4 mph - N/A   Clear
7:15 AM 50.0 °F - 29.3 °F 45% 30.30 in 10.0 mi North 9.2 mph - N/A   Clear
7:35 AM 52.0 °F - 30.7 °F 44% 30.30 in 10.0 mi North 8.1 mph - N/A   Clear
7:55 AM 53.4 °F - 32.4 °F 45% 30.31 in 10.0 mi North 8.1 mph - N/A   Clear
8:15 AM 56.3 °F - 29.8 °F 36% 30.31 in 10.0 mi North 8.1 mph - N/A   Clear
8:35 AM 60.1 °F - 29.3 °F 31% 30.32 in 10.0 mi Calm Calm - N/A   Clear
8:55 AM 65.3 °F - 28.6 °F 25% 30.32 in 10.0 mi SW 3.5 mph - N/A   Clear
9:15 AM 67.5 °F - 28.6 °F 23% 30.32 in 10.0 mi WSW 3.5 mph - N/A   Clear
9:35 AM 70.0 °F - 29.3 °F 22% 30.32 in 10.0 mi SW 5.8 mph - N/A   Clear
9:55 AM 73.4 °F - 29.1 °F 19% 30.32 in 10.0 mi WSW 5.8 mph - N/A   Clear
10:15 AM 75.6 °F - 27.3 °F 17% 30.31 in 10.0 mi West 15.0 mph 20.7 mph N/A   Clear
10:35 AM 77.0 °F - 23.2 °F 14% 30.31 in 10.0 mi West 13.8 mph - N/A   Clear
10:55 AM 78.1 °F - 23.2 °F 13% 30.30 in 10.0 mi WSW 12.7 mph 23.0 mph N/A   Clear
11:15 AM 79.2 °F - 23.4 °F 13% 30.30 in 10.0 mi West 13.8 mph 24.2 mph N/A   Clear
11:35 AM - - - N/A% 30.30 in 10.0 mi West 13.8 mph 21.9 mph N/A   Clear
11:55 AM - - - N/A% 30.30 in 10.0 mi SW 13.8 mph 21.9 mph N/A   Clear
12:15 PM 81.1 °F - 22.1 °F 11% 30.29 in 10.0 mi West 18.4 mph 24.2 mph N/A   Clear
12:35 PM - - - N/A% 30.29 in 10.0 mi WSW 19.6 mph 29.9 mph N/A   Clear
12:55 PM - - - N/A% 30.29 in 10.0 mi WSW 19.6 mph 29.9 mph N/A   Clear
1:15 PM - - - N/A% 30.29 in 10.0 mi West 16.1 mph 26.5 mph N/A   Clear
1:35 PM - - - N/A% 30.29 in 10.0 mi West 23.0 mph 31.1 mph N/A   Clear
1:55 PM - - - N/A% 30.28 in 10.0 mi West 15.0 mph 34.5 mph N/A   Clear
2:15 PM 83.5 °F - 18.0 °F 9% 30.28 in 10.0 mi West 19.6 mph 31.1 mph N/A   Clear
2:35 PM 82.8 °F - 18.1 °F 9% 30.28 in 10.0 mi West 12.7 mph 23.0 mph N/A   Clear
2:55 PM - - - N/A% 30.27 in 10.0 mi West 15.0 mph 25.3 mph N/A   Clear
3:15 PM - - - N/A% 30.27 in 10.0 mi West 21.9 mph 27.6 mph N/A   Clear
3:35 PM - - - N/A% 30.26 in 10.0 mi West 18.4 mph 31.1 mph N/A   Clear
3:55 PM - - - N/A% 30.26 in 10.0 mi WSW 17.3 mph 29.9 mph N/A   Clear
4:15 PM - - - N/A% 30.26 in 10.0 mi West 18.4 mph 26.5 mph N/A   Clear
4:35 PM 83.8 °F - 21.2 °F 10% 30.26 in 10.0 mi West 20.7 mph 29.9 mph N/A   Clear
4:55 PM - - - N/A% 30.25 in 10.0 mi WSW 21.9 mph 27.6 mph N/A   Clear
5:15 PM - - - N/A% 30.25 in 10.0 mi West 15.0 mph 26.5 mph N/A   Clear
5:35 PM - - - N/A% 30.25 in 10.0 mi WNW 12.7 mph 23.0 mph N/A   Clear
5:55 PM - - - N/A% 30.25 in 10.0 mi West 16.1 mph 27.6 mph N/A   Clear
6:15 PM 82.0 °F - 22.8 °F 11% 30.25 in 10.0 mi West 17.3 mph 26.5 mph N/A   Clear
6:35 PM 80.2 °F - 22.5 °F 12% 30.24 in 10.0 mi WNW 17.3 mph 24.2 mph N/A   Clear
6:55 PM 80.4 °F - 22.8 °F 12% 30.24 in 10.0 mi WNW 16.1 mph 21.9 mph N/A   Clear
7:15 PM 80.4 °F - 23.5 °F 12% 30.24 in 10.0 mi WNW 15.0 mph - N/A   Clear
7:35 PM 78.4 °F - 23.5 °F 13% 30.24 in 10.0 mi WNW 16.1 mph - N/A   Clear
7:55 PM 76.6 °F - 23.0 °F 14% 30.25 in 10.0 mi WNW 11.5 mph 18.4 mph N/A   Clear
8:15 PM 74.5 °F - 22.8 °F 15% 30.25 in 10.0 mi WNW 10.4 mph - N/A   Clear
8:35 PM 73.2 °F - 23.0 °F 15% 30.26 in 10.0 mi WNW 6.9 mph - N/A   Clear
8:55 PM 70.9 °F - 23.2 °F 17% 30.26 in 10.0 mi WNW 10.4 mph - N/A   Clear
9:15 PM 70.5 °F - 21.2 °F 16% 30.27 in 10.0 mi WNW 10.4 mph - N/A   Clear
9:35 PM 69.4 °F - 21.7 °F 16% 30.27 in 10.0 mi WNW 9.2 mph - N/A   Clear
9:55 PM 67.6 °F - 22.3 °F 18% 30.27 in 10.0 mi NNW 6.9 mph - N/A   Clear
10:15 PM 64.8 °F - 23.4 °F 21% 30.28 in 10.0 mi NNW 4.6 mph - N/A   Clear
10:35 PM 63.7 °F - 23.7 °F 22% 30.28 in 10.0 mi North 6.9 mph - N/A   Clear
10:55 PM 61.5 °F - 24.8 °F 25% 30.28 in 10.0 mi North 4.6 mph - N/A   Clear
11:15 PM 61.2 °F - 25.0 °F 25% 30.28 in 10.0 mi North 4.6 mph - N/A   Clear
11:35 PM 60.1 °F - 25.7 °F 27% 30.28 in 10.0 mi NNW 6.9 mph - N/A   Clear
11:55 PM 59.7 °F - 25.2 °F 27% 30.28 in 10.0 mi NNW 8.1 mph - N/A   Clear